SCP
0 0 0 0 0 0 0 0 0 0 0 0 0 0 0 0 0 0 0 0 0 0 0 0 0 0 0 0 0 0 0 0 0 0 0 0 0 0
0 0 0 0 0 0 0 0 0 0 0 0 0 0 0 0 0 0 0 0 0 0 0 0 0 0 0 0 0 0 0 0 0 0 0 0 0 0
0 0 0 0 0 0 0 0 0 0 0 0 0 0 0 0 0 0 0 0 0 0 0 0 0 0 0 0 0 0 0 0 0 0 0 0 0 0
0 0 0 0 0 0 0 0 1 1 1 1 0 1 1 1 0 0 0 0 0 0 0 0 0 0 0 0 0 0 0 0 0 0 0 0 0 0
0 0 0 0 1 1 1 1 1 1 1 1 1 1 1 1 1 0 0 0 0 0 0 0 0 0 0 0 0 0 0 0 0 0 0 0 0 0
1 1 1 1 1 1 1 1 1 1 1 1 1 1 1 1 1 1 0 0 0 0 0 0 0 0 0 0 0 0 0 0 0 0 0 0 0 0
1 1 1 1 1 1 1 1 1 1 1 1 1 1 1 1 1 1 1 0 0 0 0 0 0 0 0 0 0 0 0 0 0 0 0 0 0 0
1 1 1 1 1 0 0 0 0 1 1 1 1 1 1 1 1 1 1 1 1 1 0 0 0 0 0 0 0 0 0 0 0 0 0 0 0 0
1 1 1 1 1 1 0 0 0 0 0 1 1 1 1 1 1 1 1 1 1 1 1 0 0 0 0 0 0 0 0 0 0 0 0 0 0 0
1 1 1 1 1 1 1 1 1 0 0 0 1 1 1 1 1 1 1 1 1 1 1 0 0 0 0 0 0 0 0 0 0 0 0 0 0 0
1 1 1 1 1 1 1 1 1 1 0 0 0 0 0 0 0 1 1 1 1 1 1 0 0 0 0 0 0 0 0 0 0 0 0 0 0 0
1 1 1 1 0 0 1 1 1 1 1 0 0 0 0 0 0 0 1 1 0 1 1 1 0 0 0 0 0 0 0 0 0 0 0 0 0 0
1 1 1 0 0 0 0 1 1 1 1 1 1 1 0 0 0 0 1 1 1 1 1 1 0 0 0 0 0 0 0 0 0 0 0 0 0 0
1 1 0 0 0 0 0 0 0 0 1 1 1 1 1 1 1 1 1 1 1 1 1 1 1 0 0 0 0 0 0 0 0 0 0 0 0 0
1 0 0 0 0 0 0 0 0 0 1 1 1 1 1 1 1 1 1 1 1 1 1 1 1 1 0 0 0 0 0 0 0 0 0 0 0 0
0 0 0 0 0 0 0 0 0 0 1 1 1 1 1 1 1 1 1 1 1 0 1 1 1 1 1 0 0 0 0 0 0 0 0 0 0 0
0 0 0 0 0 0 0 0 0 0 1 1 1 1 1 1 1 1 1 1 0 0 0 0 0 1 1 0 0 0 0 0 0 0 0 0 0 0
0 0 0 0 0 0 0 0 0 1 1 1 1 1 1 1 1 1 1 1 0 0 0 0 0 0 0 0 0 0 0 0 0 0 0 0 0 0
0 0 0 0 0 0 0 0 0 1 1 1 1 1 1 1 1 1 1 1 0 0 0 0 0 0 0 0 0 0 0 0 0 0 0 0 0 0
0 0 0 0 0 0 0 0 0 0 1 1 1 1 1 1 1 1 1 0 0 0 0 0 0 0 0 0 0 0 0 0 0 0 0 0 0 0
0 0 0 0 0 0 0 0 0 0 0 1 1 1 1 1 1 1 0 0 0 0 0 0 0 0 0 0 0 0 0 0 0 0 0 0 0 0
0 0 0 0 0 0 0 0 0 0 0 1 1 1 1 1 1 0 0 0 0 0 0 0 0 0 0 0 0 0 0 0 0 0 0 0 0 0
0 0 0 0 0 0 0 0 0 0 0 0 1 1 1 1 1 0 0 0 0 0 0 0 0 0 0 0 0 0 0 0 0 0 0 0 0 0
Wind_Speed
2 2 2 1 2 2 2 3 4 4 2 1 1 1 1 0 2 2 1 5 4 3 3 2 2 2 2 2 2 2 2 2 3 4 6 7 7 8
2 2 2 2 2 2 2 2 3 4 3 1 1 0 1 2 2 2 2 6 6 5 4 4 4 3 3 3 3 4 4 4 4 5 5 6 7 8
2 2 2 3 3 3 2 2 3 3 4 2 1 0 1 3 1 3 3 4 5 8 6 5 5 5 5 5 5 5 5 5 6 6 7 7 7 7
3 2 3 2 3 3 3 3 3 3 4 4 3 2 3 3 3 5 3 3 4 8 9 8 7 6 6 6 6 6 6 7 7 8 8 8 8 8
3 3 3 3 4 3 4 4 3 3 3 4 4 2 3 2 4 5 5 4 6 5 10 10 10 9 8 8 7 7 7 7 8 8 9 9 8 8
4 4 4 4 4 4 4 4 4 4 4 5 4 3 3 3 4 5 4 4 5 4 4 5 9 12 11 10 9 8 8 8 9 9 9 9 8 8
5 5 5 4 3 4 5 4 4 5 4 4 4 4 4 3 4 4 5 4 4 4 4 4 5 6 8 10 10 9 9 9 9 10 10 9 9 9
5 5 6 6 5 6 6 6 6 6 6 6 5 5 5 5 4 5 5 5 5 3 5 6 5 5 5 5 7 9 10 10 10 10 10 10 10 10
5 6 6 3 5 5 6 9 8 8 8 8 7 7 6 5 5 7 6 7 7 5 5 6 5 6 5 4 8 10 10 10 10 10 11 10 11 11
6 6 6 6 5 5 6 6 6 6 7 7 7 7 7 5 6 8 8 8 8 6 5 7 6 5 5 4 8 10 11 11 11 11 11 11 11 11
7 6 7 7 3 4 7 7 7 6 7 7 7 7 7 7 7 7 6 7 7 6 4 7 6 6 6 6 5 10 11 11 10 10 11 10 10 10
6 7 6 7 4 5 8 7 8 7 7 6 7 8 9 8 9 9 8 8 7 6 3 5 6 6 6 5 5 4 6 9 10 10 10 10 10 8
6 6 4 5 6 7 9 8 7 8 8 8 7 7 7 6 7 7 7 7 8 8 5 4 6 6 6 6 5 5 5 5 6 7 9 10 11 9
7 6 2 4 5 8 8 7 8 8 8 7 7 6 5 5 5 6 7 8 8 9 7 7 7 6 7 8 6 5 5 5 5 5 5 8 10 11
6 4 3 4 6 8 10 10 9 8 7 7 7 6 6 6 6 6 7 8 10 9 7 7 8 7 8 8 7 6 6 5 5 5 5 5 5 6
7 5 6 8 8 7 6 8 7 7 7 7 7 6 6 6 6 6 6 6 7 7 7 7 8 9 8 9 8 7 6 5 4 5 5 5 5 6
5 6 6 5 6 6 6 6 6 6 6 6 6 6 6 7 6 6 6 7 7 7 6 5 6 7 8 8 8 7 6 6 5 4 5 6 6 6
5 6 6 6 6 6 6 6 6 6 6 6 6 6 7 7 6 6 6 7 7 7 7 5 5 5 6 6 7 8 7 6 5 4 5 6 6 5
6 6 6 6 6 6 6 6 5 4 5 6 6 6 7 7 7 7 6 6 7 7 7 5 5 6 7 8 6 7 7 6 5 4 5 6 6 5
6 6 6 5 5 5 5 5 5 5 4 5 6 6 6 7 7 7 6 7 7 7 7 6 5 5 7 8 7 5 7 7 5 5 5 5 5 5
5 5 5 6 6 5 5 5 5 5 5 5 6 6 7 7 7 7 7 7 7 7 7 6 4 5 7 6 7 6 5 6 6 5 5 6 6 5
5 5 5 6 6 5 5 5 5 5 5 6 6 6 6 7 7 8 7 7 6 6 7 6 4 5 5 7 8 7 6 5 6 9 9 8 6 5
5 5 5 5 5 5 5 5 6 6 5 6 6 6 6 6 6 7 7 7 6 6 6 5 5 5 6 7 7 6 7 6 5 5 5 7 9 9
Wind_Direction
256 230 258 269 259 268 274 281 293 294 296 190 239 152 255 296 106 241 242 137 170 185 194 204 208 203 213 218 228 233 234 227 218 217 220 217 213 212
275 302 286 279 270 257 255 264 274 288 299 313 289 335 4 288 146 258 248 160 180 191 199 208 212 215 222 223 227 231 230 228 222 223 223 218 218 219
248 240 252 289 290 281 265 256 263 272 274 282 268 153 249 276 241 255 243 236 187 181 195 205 213 218 224 231 232 231 234 233 230 230 231 229 225 224
247 252 259 257 260 277 283 276 276 280 273 279 274 240 233 247 250 258 255 248 251 172 189 202 211 218 224 228 233 233 232 232 230 230 231 232 230 229
247 250 257 262 262 265 270 274 270 260 263 265 266 274 258 253 257 256 256 261 263 191 190 202 210 216 220 224 228 232 233 231 229 228 228 228 228 228
249 253 256 258 261 265 258 264 271 271 257 260 263 255 250 245 257 264 256 234 255 254 227 216 207 211 216 219 223 230 232 231 228 227 226 224 224 225
245 248 250 258 277 277 282 274 268 266 262 259 263 266 261 256 259 265 272 271 249 251 261 244 220 223 213 215 220 228 231 229 228 227 226 224 223 224
249 251 242 227 230 231 250 263 274 269 275 274 267 270 271 268 271 272 276 276 271 243 262 262 253 247 237 230 197 208 220 225 227 226 226 226 226 225
250 255 262 247 238 251 233 227 235 243 253 268 277 276 274 274 277 270 271 279 282 283 267 267 260 256 251 226 186 200 213 223 227 227 226 226 228 229
247 248 255 263 257 263 262 256 253 241 238 246 268 273 275 277 267 268 272 266 262 255 256 269 269 266 265 247 189 200 210 217 224 227 227 225 227 229
248 247 251 251 240 254 258 261 262 255 227 228 244 255 264 264 268 270 266 264 267 261 244 262 271 272 267 260 217 199 210 214 220 226 227 225 225 228
239 236 233 249 231 225 251 258 262 265 269 249 238 239 244 238 231 249 266 269 274 273 256 260 269 275 270 259 256 231 219 214 217 222 224 221 218 229
258 249 224 192 219 230 247 255 261 270 266 262 255 249 244 243 238 237 250 265 274 275 277 262 270 270 269 276 270 257 248 242 227 223 219 217 214 223
268 270 251 180 223 235 241 254 259 262 262 263 262 260 260 260 259 255 247 250 258 268 276 275 275 274 275 274 273 265 256 249 248 246 237 212 216 221
274 301 298 229 234 234 232 240 244 250 259 261 261 262 265 271 268 257 249 247 252 255 257 256 262 267 267 271 275 271 266 257 248 247 245 234 232 224
256 247 225 230 243 260 245 229 239 251 258 262 266 268 268 263 259 264 265 260 259 255 241 243 250 258 260 267 272 271 268 262 253 251 251 244 235 232
267 258 254 245 241 244 246 245 246 245 249 258 264 269 268 265 265 264 265 267 266 269 263 247 242 243 254 263 265 265 267 265 259 247 248 251 243 232
261 260 260 260 261 259 257 252 248 252 257 259 260 264 268 270 270 268 264 265 269 272 271 266 262 261 253 248 244 263 267 269 264 241 242 250 249 238
246 260 267 269 270 272 272 270 267 266 268 266 266 268 268 268 268 267 266 268 272 274 274 271 266 264 266 267 244 229 259 266 260 249 245 247 250 247
252 264 269 271 273 274 274 274 275 273 268 271 273 275 274 272 270 270 269 272 272 273 272 265 259 263 269 278 282 264 236 256 264 260 259 258 255 245
256 260 265 268 271 274 276 276 273 269 271 273 272 274 275 275 275 273 270 266 266 267 268 269 274 265 271 270 266 265 254 221 237 255 262 263 260 249
265 265 266 271 273 274 273 271 270 270 269 268 272 273 275 277 277 277 277 271 263 264 271 274 269 263 265 261 264 271 272 263 237 227 232 244 258 259
276 279 280 279 277 275 274 273 275 277 278 278 278 277 277 278 278 276 273 276 280 276 275 277 277 273 273 267 267 271 271 270 266 258 245 218 220 240